HBLMB LSPV-LSZB

Flight info

Callsign HBLMB
Flight time 0h 46m
Altitude 8000
Route DCT
Aircraft DA42/L-SBDGRY/S

Departure

Time 2026-05-05 13:42
Airport Wangen-Lachen Airfield (LSPV)

Arrival

Time 2026-05-05 14:28
Airport Bern Airport (LSZB)
Time Latitude Longitude Altitude Speed Heading
2026-05-05 13:35 47.20412 8.86425 1365 ft 0 kts 345°
2026-05-05 13:41 47.20415 8.86424 1364 ft 3 kts 345°
2026-05-05 13:41 47.20451 8.86486 1365 ft 23 kts 77°
2026-05-05 13:41 47.20498 8.86841 1366 ft 41 kts 78°
2026-05-05 13:41 47.20519 8.87027 1365 ft 8 kts 272°
2026-05-05 13:42 47.20507 8.86899 1365 ft 37 kts 259°
2026-05-05 13:42 47.20421 8.86274 1414 ft 77 kts 262°
2026-05-05 13:42 47.20320 8.85491 1735 ft 80 kts 262°
2026-05-05 13:42 47.20208 8.84636 2066 ft 90 kts 262°
2026-05-05 13:43 47.20092 8.83656 2312 ft 106 kts 262°
2026-05-05 13:43 47.20015 8.82524 2515 ft 117 kts 289°
2026-05-05 13:43 47.20780 8.81946 2457 ft 141 kts 353°
2026-05-05 13:43 47.21722 8.81583 2722 ft 138 kts 331°
2026-05-05 13:44 47.22505 8.80767 3046 ft 142 kts 310°
2026-05-05 13:44 47.22907 8.79457 3388 ft 146 kts 274°
2026-05-05 13:44 47.22757 8.77989 3652 ft 146 kts 255°
2026-05-05 13:44 47.22465 8.76496 3682 ft 152 kts 257°
2026-05-05 13:45 47.22237 8.74980 3802 ft 152 kts 259°
2026-05-05 13:45 47.22005 8.73470 3850 ft 156 kts 260°
2026-05-05 13:45 47.21850 8.71888 3913 ft 158 kts 266°
2026-05-05 13:45 47.21775 8.70268 3976 ft 158 kts 269°
2026-05-05 13:46 47.21747 8.68647 3994 ft 160 kts 269°
2026-05-05 13:46 47.21775 8.66996 4023 ft 160 kts 272°
2026-05-05 13:46 47.21918 8.65405 4127 ft 157 kts 279°
2026-05-05 13:46 47.22164 8.63825 4092 ft 162 kts 282°
2026-05-05 13:47 47.22325 8.62162 4026 ft 165 kts 270°
2026-05-05 13:47 47.22226 8.60485 4054 ft 163 kts 262°
2026-05-05 13:47 47.22066 8.58815 4029 ft 166 kts 261°
2026-05-05 13:47 47.21879 8.57162 4122 ft 162 kts 260°
2026-05-05 13:48 47.21730 8.55492 4079 ft 166 kts 265°
2026-05-05 13:48 47.21685 8.53793 4085 ft 166 kts 266°
2026-05-05 13:48 47.21579 8.52106 4074 ft 166 kts 263°
2026-05-05 13:48 47.21492 8.50976 4036 ft 168 kts 263°
2026-05-05 13:49 47.21338 8.49281 4051 ft 166 kts 262°
2026-05-05 13:49 47.21149 8.47608 4054 ft 165 kts 257°
2026-05-05 13:49 47.20884 8.45974 4082 ft 163 kts 259°
2026-05-05 13:49 47.20752 8.44312 4076 ft 164 kts 265°
2026-05-05 13:50 47.20659 8.42642 4066 ft 165 kts 265°
2026-05-05 13:50 47.20582 8.40953 4048 ft 165 kts 265°
2026-05-05 13:50 47.20527 8.39266 4073 ft 166 kts 266°
2026-05-05 13:50 47.20435 8.37568 4060 ft 166 kts 264°
2026-05-05 13:51 47.20309 8.35915 4086 ft 164 kts 262°
2026-05-05 13:51 47.20181 8.34275 4135 ft 160 kts 265°
2026-05-05 13:51 47.20158 8.32635 4104 ft 162 kts 270°
2026-05-05 13:51 47.20193 8.30964 4090 ft 164 kts 271°
2026-05-05 13:52 47.20211 8.29266 4070 ft 168 kts 271°
2026-05-05 13:52 47.20273 8.27553 4089 ft 169 kts 271°
2026-05-05 13:52 47.20456 8.25288 4074 ft 167 kts 279°
2026-05-05 13:52 47.20610 8.24163 4055 ft 165 kts 278°
2026-05-05 13:53 47.20835 8.22498 3929 ft 167 kts 276°
2026-05-05 13:53 47.20996 8.20827 3936 ft 163 kts 276°
2026-05-05 13:53 47.21192 8.19222 3952 ft 162 kts 278°
2026-05-05 13:53 47.21433 8.17573 3811 ft 167 kts 278°
2026-05-05 13:54 47.21669 8.15907 3747 ft 165 kts 278°
2026-05-05 13:54 47.21927 8.14266 3723 ft 163 kts 280°
2026-05-05 13:54 47.22034 8.12621 3661 ft 163 kts 264°
2026-05-05 13:54 47.21833 8.10968 3619 ft 163 kts 255°
2026-05-05 13:55 47.21582 8.09334 3548 ft 166 kts 257°
2026-05-05 13:55 47.21340 8.07726 3649 ft 157 kts 256°
2026-05-05 13:55 47.21095 8.06135 3565 ft 161 kts 255°
2026-05-05 13:55 47.20765 8.04559 3551 ft 160 kts 246°
2026-05-05 13:56 47.20295 8.03096 3531 ft 162 kts 243°
2026-05-05 13:56 47.19804 8.01594 3486 ft 160 kts 243°
2026-05-05 13:56 47.19261 8.00158 3346 ft 165 kts 238°
2026-05-05 13:56 47.18712 7.98757 3476 ft 157 kts 242°
2026-05-05 13:57 47.18174 7.97343 3470 ft 156 kts 240°
2026-05-05 13:57 47.17683 7.95891 3395 ft 161 kts 244°
2026-05-05 13:57 47.17176 7.94452 3451 ft 155 kts 243°
2026-05-05 13:57 47.16791 7.92973 3497 ft 154 kts 259°
2026-05-05 13:58 47.16848 7.91401 3372 ft 160 kts 275°
2026-05-05 13:58 47.17027 7.89786 3411 ft 159 kts 277°
2026-05-05 13:58 47.17168 7.88148 3341 ft 164 kts 272°
2026-05-05 13:58 47.17302 7.86495 3234 ft 164 kts 272°
2026-05-05 13:59 47.17481 7.83238 3305 ft 153 kts 270°
2026-05-05 13:59 47.17409 7.81661 3239 ft 158 kts 256°
2026-05-05 14:00 47.16375 7.78717 3136 ft 161 kts 243°
2026-05-05 14:00 47.16047 7.77203 3082 ft 153 kts 266°
2026-05-05 14:00 47.16547 7.75863 2893 ft 161 kts 314°
2026-05-05 14:00 47.17557 7.75840 2757 ft 173 kts 40°
2026-05-05 14:01 47.18395 7.77073 2470 ft 158 kts 37°
2026-05-05 14:01 47.19299 7.77273 2306 ft 124 kts 328°
2026-05-05 14:01 47.19607 7.76375 2204 ft 105 kts 230°
2026-05-05 14:01 47.19101 7.75669 1898 ft 88 kts 233°
2026-05-05 14:02 47.18749 7.74997 1705 ft 82 kts 232°
2026-05-05 14:02 47.18440 7.74417 1586 ft 64 kts 229°
2026-05-05 14:02 47.18147 7.73871 1652 ft 75 kts 231°
2026-05-05 14:02 47.17800 7.73266 1896 ft 82 kts 229°
2026-05-05 14:03 47.17376 7.72611 2094 ft 94 kts 218°
2026-05-05 14:03 47.16762 7.72225 2280 ft 96 kts 198°
2026-05-05 14:03 47.16189 7.72414 2426 ft 103 kts 94°
2026-05-05 14:03 47.16502 7.73455 2375 ft 121 kts 62°
2026-05-05 14:04 47.16911 7.74507 2460 ft 127 kts 56°
2026-05-05 14:04 47.17456 7.75599 2487 ft 137 kts 48°
2026-05-05 14:04 47.18101 7.76666 2445 ft 145 kts 44°
2026-05-05 14:04 47.18985 7.76816 2294 ft 147 kts 330°
2026-05-05 14:05 47.19129 7.75760 2056 ft 126 kts 236°
2026-05-05 14:05 47.18540 7.74596 1753 ft 154 kts 232°
2026-05-05 14:05 47.17904 7.73389 2059 ft 140 kts 231°
2026-05-05 14:05 47.17238 7.72358 2283 ft 138 kts 213°
2026-05-05 14:06 47.16328 7.72141 2465 ft 133 kts 171°
2026-05-05 14:06 47.16352 7.73279 2396 ft 142 kts 57°
2026-05-05 14:06 47.16885 7.74481 2456 ft 144 kts 54°
2026-05-05 14:06 47.17486 7.75678 2460 ft 141 kts 50°
2026-05-05 14:07 47.18048 7.76693 2429 ft 117 kts 44°
2026-05-05 14:07 47.18720 7.76756 2259 ft 102 kts 326°
2026-05-05 14:07 47.19162 7.76117 2100 ft 84 kts 272°
2026-05-05 14:07 47.18935 7.75354 1917 ft 81 kts 232°
2026-05-05 14:08 47.18605 7.74737 1683 ft 75 kts 233°
2026-05-05 14:08 47.18325 7.74205 1580 ft 54 kts 233°
2026-05-05 14:08 47.18174 7.73916 1586 ft 23 kts 234°
2026-05-05 14:08 47.18136 7.73935 1579 ft 10 kts 52°
2026-05-05 14:09 47.18195 7.74050 1580 ft 18 kts 52°
2026-05-05 14:09 47.18272 7.74193 1580 ft 16 kts 58°
2026-05-05 14:09 47.18278 7.74244 1579 ft 0 kts 328°
2026-05-05 14:10 47.18292 7.74241 1580 ft 3 kts
2026-05-05 14:11 47.18369 7.74378 1579 ft 24 kts 52°
2026-05-05 14:11 47.18425 7.74452 1579 ft 9 kts 29°
2026-05-05 14:11 47.18443 7.74427 1578 ft 7 kts 232°
2026-05-05 14:11 47.18312 7.74179 1581 ft 61 kts 232°
2026-05-05 14:12 47.17999 7.73609 1797 ft 73 kts 229°
2026-05-05 14:12 47.17612 7.73008 2042 ft 89 kts 225°
2026-05-05 14:12 47.17088 7.72362 2269 ft 109 kts 205°
2026-05-05 14:12 47.16293 7.72092 2449 ft 123 kts 192°
2026-05-05 14:13 47.15432 7.71821 2601 ft 129 kts 203°
2026-05-05 14:13 47.14670 7.71067 2705 ft 135 kts 232°
2026-05-05 14:13 47.14310 7.69779 2898 ft 137 kts 241°
2026-05-05 14:13 47.13618 7.68750 2942 ft 144 kts 217°
2026-05-05 14:14 47.12741 7.67937 2908 ft 153 kts 211°
2026-05-05 14:14 47.11822 7.67171 3048 ft 152 kts 210°
2026-05-05 14:14 47.10853 7.66416 3048 ft 160 kts 209°
2026-05-05 14:14 47.09860 7.65714 3178 ft 156 kts 204°
2026-05-05 14:15 47.08825 7.65267 3248 ft 158 kts 193°
2026-05-05 14:15 47.07750 7.64971 3390 ft 155 kts 191°
2026-05-05 14:15 47.06709 7.64740 3606 ft 150 kts 189°
2026-05-05 14:15 47.05647 7.64555 3665 ft 155 kts 186°
2026-05-05 14:16 47.04564 7.64435 3717 ft 159 kts 186°
2026-05-05 14:16 47.03469 7.64346 3866 ft 158 kts 185°
2026-05-05 14:16 47.02351 7.64334 3914 ft 162 kts 179°
2026-05-05 14:16 47.01227 7.64590 3918 ft 167 kts 169°
2026-05-05 14:17 47.00096 7.65094 3902 ft 170 kts 170°
2026-05-05 14:17 46.98945 7.64951 3822 ft 167 kts 204°
2026-05-05 14:17 46.98008 7.63979 3725 ft 168 kts 223°
2026-05-05 14:17 46.97104 7.62883 3590 ft 170 kts 216°
2026-05-05 14:18 46.96199 7.61782 3548 ft 168 kts 225°
2026-05-05 14:18 46.95394 7.60565 3524 ft 165 kts 229°
2026-05-05 14:18 46.94559 7.59406 3538 ft 165 kts 218°
2026-05-05 14:18 46.93596 7.58411 3427 ft 172 kts 214°
2026-05-05 14:19 46.92583 7.57441 3288 ft 170 kts 213°
2026-05-05 14:19 46.91613 7.56459 3043 ft 170 kts 217°
2026-05-05 14:19 46.90727 7.55332 2917 ft 171 kts 224°
2026-05-05 14:19 46.89895 7.54122 2804 ft 160 kts 226°
2026-05-05 14:20 46.89310 7.53174 2653 ft 106 kts 234°
2026-05-05 14:20 46.89327 7.52276 2415 ft 102 kts 307°
2026-05-05 14:20 46.89842 7.51601 2123 ft 95 kts 323°
2026-05-05 14:20 46.90349 7.51008 1887 ft 90 kts 320°
2026-05-05 14:21 46.90784 7.50482 1713 ft 71 kts 321°
2026-05-05 14:21 46.91147 7.50043 1710 ft 79 kts 319°
2026-05-05 14:21 46.91611 7.49479 1927 ft 87 kts 316°
2026-05-05 14:21 46.92079 7.48901 2261 ft 92 kts 315°
2026-05-05 14:22 46.92555 7.48224 2539 ft 98 kts 310°
2026-05-05 14:22 46.93133 7.47671 2683 ft 112 kts 15°
2026-05-05 14:22 46.93685 7.48586 2772 ft 124 kts 51°
2026-05-05 14:22 46.93576 7.49666 2894 ft 130 kts 145°
2026-05-05 14:23 46.92823 7.50459 2905 ft 140 kts 144°
2026-05-05 14:23 46.92014 7.51263 2986 ft 139 kts 146°
2026-05-05 14:23 46.91224 7.52069 2949 ft 138 kts 144°
2026-05-05 14:23 46.90437 7.52877 2794 ft 139 kts 148°
2026-05-05 14:24 46.89537 7.53068 2647 ft 129 kts 205°
2026-05-05 14:24 46.89180 7.52224 2526 ft 95 kts 300°
2026-05-05 14:24 46.89777 7.51712 2174 ft 99 kts 328°
2026-05-05 14:24 46.90282 7.51095 1907 ft 86 kts 320°
2026-05-05 14:25 46.90716 7.50568 1741 ft 76 kts 321°
2026-05-05 14:25 46.91078 7.50125 1711 ft 69 kts 323°
2026-05-05 14:25 46.91511 7.49613 1934 ft 81 kts 317°
2026-05-05 14:25 46.91964 7.49058 2282 ft 93 kts 316°
2026-05-05 14:26 46.92252 7.48109 2383 ft 120 kts 278°
2026-05-05 14:26 46.92086 7.46918 2626 ft 127 kts 223°
2026-05-05 14:26 46.91239 7.47065 2675 ft 147 kts 142°
2026-05-05 14:26 46.90418 7.48085 2679 ft 160 kts 140°
2026-05-05 14:27 46.89575 7.49148 2684 ft 160 kts 139°
2026-05-05 14:27 46.88773 7.50259 2618 ft 157 kts 129°
2026-05-05 14:27 46.88792 7.51632 2645 ft 129 kts 52°
2026-05-05 14:27 46.89493 7.51995 2441 ft 110 kts 345°
2026-05-05 14:28 46.90084 7.51368 2044 ft 97 kts 316°
2026-05-05 14:28 46.90536 7.50783 1794 ft 78 kts 321°
2026-05-05 14:28 46.90915 7.50322 1706 ft 59 kts 321°
2026-05-05 14:28 46.91089 7.50116 1711 ft 18 kts 311°
2026-05-05 14:29 46.91175 7.50006 1696 ft 15 kts 319°
2026-05-05 14:29 46.91248 7.49948 1681 ft 10 kts 45°
2026-05-05 14:29 46.91270 7.50034 1705 ft 10 kts 142°
2026-05-05 14:29 46.91216 7.50099 1708 ft 10 kts 140°
2026-05-05 14:30 46.91163 7.50164 1708 ft 10 kts 131°
2026-05-05 14:30 46.91116 7.50227 1708 ft 8 kts 134°
2026-05-05 14:30 46.91129 7.50283 1712 ft 4 kts 123°
2026-05-05 14:30 46.91109 7.50279 1713 ft 3 kts 230°
2026-05-05 14:31 46.91108 7.50278 1713 ft 0 kts 230°